Home   Weather   19°14'N, 99°06'W   Past weeks
Flag for Mexico

Past Weather in 19°14'N, 99°06'W, Mexico — Yesterday and Last 2 Weeks

Now
61 °F

Mostly cloudy.


Feels Like: 61 °F
Forecast: 65 / 58 °F
Wind: 7 mph from North

Location: Mexico City / Licenci

Current Time: Oct 17, 2019 at 2:37:07 pm

Latest Report: Oct 17, 2019 at 1:59 pm


Visibility: 5 mi

Pressure: 30.23 "Hg

Humidity: 88%

Dew Point: 57 °F

Location of 19°14'N, 99°06'WLocation

Past Weather in 19°14'N, 99°06'W — Graph

°F

19°14'N, 99°06'W Temperature Yesterday

Maximum temperature yesterday: 70 °F (at 12:51 pm)
Minimum temperature yesterday: 61 °F (at 3:58 am)
Average temperature yesterday: 64 °F

High & Low Weather Summary for the Past Weeks

 TemperatureHumidityPressure
High81 °F (Oct 11, 4:51 pm)94% (Oct 13, 7:45 am)30.39 "Hg (Oct 13, 7:45 am)
Low54 °F (Oct 3, 7:51 am)21% (Oct 14, 3:47 pm)29.59 "Hg (Oct 14, 3:47 pm)
Average65 °F59%30.14 "Hg
* Reported Oct 2 1:43 pm — Oct 17 1:10 pm, 19°14'N, 99°06'W. Weather by CustomWeather, © 2019

Note: Actual official high and low records may vary slightly from our data, if they occured in-between our weather recording intervals... More about our weather records

Advertising

19°14'N, 99°06'W Weather History for the Previous 24 Hours

Scroll right to see more
 ConditionsComfort  
Time TempWeatherWind HumidityBarometerVisibility
1:10 pm
Thu, Oct 17
61 °FLight rain. Mostly cloudy.6 mph88%30.26 "Hg3 mi
12:52 pm63 °FLight rain. Mostly cloudy.6 mph77%29.78 "Hg5 mi
12:20 pm64 °FCloudy.3 mph78%30.27 "Hg6 mi
11:45 am61 °FBroken clouds.8 mph88%30.29 "Hg4 mi
11:36 am61 °FMostly cloudy.7 mph88%30.29 "Hg3 mi
11:04 am61 °FLight rain. Mostly cloudy.6 mph83%30.30 "Hg2 mi
8:48 am57 °FLight rain. Mostly cloudy.8 mph94%30.28 "Hg3 mi
7:57 am59 °FLight rain. Mostly cloudy.7 mph88%30.27 "Hg3 mi
6:50 am59 °FLight rain. Mostly cloudy.6 mph88%29.80 "Hg4 mi
6:39 am57 °FLight rain. Mostly cloudy.5 mph94%30.25 "Hg4 mi
6:11 am59 °FRain. Mostly cloudy.5 mph88%30.25 "Hg3 mi
5:42 am59 °FLight rain. Mostly cloudy.5 mph88%30.25 "Hg5 mi
5:38 am59 °FLight rain. Mostly cloudy.5 mph88%30.24 "Hg5 mi
4:44 am57 °FMostly cloudy.5 mph94%30.24 "Hg4 mi
3:54 am57 °FLight rain. Mostly cloudy.5 mph94%29.75 "Hg4 mi
2:44 am57 °FRain. Mostly cloudy.9 mph94%30.26 "Hg3 mi
2:11 am57 °FRain. Mostly cloudy.6 mph94%30.26 "Hg3 mi
1:49 am59 °FLight rain. Mostly cloudy.9 mph88%30.26 "Hg6 mi
1:18 am59 °FLight rain. Mostly cloudy.12 mph82%30.27 "Hg8 mi
12:46 am61 °FMostly cloudy.10 mph72%29.66 "Hg10 mi
11:50 pm
Wed, Oct 16
61 °FPartly cloudy.12 mph72%30.27 "Hg10 mi
10:45 pm61 °FPartly cloudy.8 mph72%30.28 "Hg10 mi
10:44 pm63 °FPartly cloudy.8 mph68%30.28 "Hg10 mi
9:52 pm63 °FLight rain. Partly cloudy.13 mph68%29.73 "Hg10 mi
9:30 pm63 °FLight rain. Partly cloudy.9 mph68%30.25 "Hg10 mi
8:47 pm64 °FMostly cloudy.8 mph64%30.23 "Hg10 mi
7:45 pm64 °FMostly cloudy.16 mph60%30.21 "Hg9 mi
6:52 pm66 °FMostly cloudy.18 mph60%29.70 "Hg7 mi
5:52 pm68 °FMostly cloudy.9 mph56%30.17 "Hg7 mi
5:38 pm68 °FMostly cloudy.10 mph56%30.17 "Hg7 mi
4:47 pm64 °FLight rain. Mostly cloudy.10 mph64%30.17 "Hg5 mi
3:45 pm68 °FMostly cloudy.15 mph56%29.66 "Hg7 mi
2:49 pm68 °FMostly cloudy.14 mph53%30.19 "Hg7 mi
Weather by CustomWeather, © 2019

See weather overview